KB1JLI Weather Reports


Display with metric or nautical units.
time (UTC)temp
F
wind
direction
speed
MPH
gust
MPH
rain 1hr
in
rain 24hr
in
rain mn
in
humidity
%
barometer
mb
20260507105044 49 269 1.0 2.0 0.00 0.03 0.03 85 1008.1
20260507104542 49 237 1.0 2.0 0.00 0.03 0.03 86 1007.7
20260507104038 49 296 0.0 2.0 0.00 0.03 0.03 88 1007.5
20260507103534 48 253 1.0 1.0 0.00 0.03 0.03 88 1007.6
20260507103031 48 197 0.0 1.0 0.00 0.03 0.03 90 1007.6
20260507102528 49 90 0.0 1.0 0.00 0.03 0.03 91 1007.2
20260507102024 49 90 0.0 1.0 0.00 0.03 0.03 91 1007.0
20260507101520 49 57 0.0 1.0 0.00 0.03 0.03 91 1007.6
20260507101016 48 219 0.0 0.0 0.00 0.03 0.03 92 1007.6
20260507100514 48 188 1.0 1.0 0.00 0.03 0.03 92 1007.1
20260507100012 49 323 2.0 2.0 0.00 0.03 0.03 92 1007.0
20260507095509 49 267 1.0 2.0 0.00 0.03 0.03 92 1007.3
20260507095005 49 254 0.0 0.0 0.00 0.03 0.03 92 1007.4
20260507094502 49 211 0.0 0.0 0.05 0.03 0.03 91 1007.4
20260507093959 49 201 0.0 0.0 0.05 0.03 0.03 91 1007.5
20260507093456 49 233 1.0 2.0 0.00 0.02 0.02 91 1007.4
20260507092955 49 299 2.0 2.0 0.00 0.02 0.02 91 1007.2
20260507092450 49 245 1.0 1.0 0.00 0.02 0.02 90 1007.4
20260507091942 49 223 0.0 0.0 0.00 0.02 0.02 90 1007.4
20260507091439 49 320 0.0 1.0 0.00 0.02 0.02 89 1007.8
20260507090934 49 293 1.0 1.0 0.00 0.02 0.02 90 1007.8
20260507090430 50 194 0.0 0.0 0.00 0.02 0.02 90 1007.6
20260507085927 50 200 0.0 0.0 0.00 0.02 0.02 89 1007.5
20260507085424 50 219 0.0 0.0 0.00 0.02 0.02 90 1007.5
20260507084921 49 353 1.0 3.0 0.00 0.02 0.02 91 1007.6
20260507084418 50 83 2.0 2.0 0.00 0.02 0.02 92 1007.2
20260507083915 50 271 2.0 2.0 0.00 0.02 0.02 92 1007.5
20260507083412 50 291 1.0 2.0 0.00 0.02 0.02 92 1007.1
20260507082908 50 286 1.0 1.0 0.00 0.02 0.02 92 1007.0
20260507082404 50 285 0.0 0.0 0.00 0.02 0.02 92 1007.1
20260507081901 50 103 1.0 1.0 0.00 0.02 0.02 92 1006.8
20260507081357 50 104 1.0 1.0 0.00 0.02 0.02 92 1007.1
20260507080854 50 105 0.0 0.0 0.00 0.02 0.02 91 1007.1
20260507080350 50 219 1.0 1.0 0.00 0.02 0.02 90 1007.5
20260507075846 51 207 0.0 0.0 0.07 0.02 0.02 89 1007.5
20260507075342 51 298 0.0 2.0 0.07 0.02 0.02 88 1007.0
20260507074838 51 1 1.0 4.0 0.00 0.01 0.01 87 1007.0
20260507074336 51 203 2.0 3.0 0.00 0.01 0.01 87 1007.3
20260507073833 51 297 2.0 3.0 0.00 0.01 0.01 88 1007.0
20260507073329 51 198 0.0 3.0 0.00 0.01 0.01 88 1006.9
20260507072827 51 334 3.0 4.0 0.00 0.01 0.01 88 1006.8
20260507072324 52 195 0.0 1.0 0.00 0.01 0.01 89 1006.7
20260507071821 51 280 4.0 4.0 0.00 0.01 0.01 90 1006.6
20260507071318 51 279 1.0 2.0 0.00 0.01 0.01 92 1006.7
20260507070815 51 226 0.0 0.0 0.00 0.01 0.01 93 1006.8
20260507070312 52 225 0.0 0.0 0.00 0.01 0.01 93 1006.5
20260507065809 52 116 0.0 0.0 0.00 0.01 0.01 93 1006.3
20260507065306 52 169 0.0 0.0 0.00 0.01 0.01 93 1006.6
20260507064803 52 171 0.0 0.0 0.00 0.01 0.01 93 1006.5
20260507064301 52 181 0.0 2.0 0.00 0.01 0.01 93 1006.7
20260507063759 51 199 0.0 0.0 0.00 0.01 0.01 92 1006.5
20260507063255 51 183 0.0 0.0 0.00 0.01 0.01 92 1006.6
20260507062752 52 183 0.0 0.0 0.00 0.01 0.01 92 1006.3
20260507062249 52 186 0.0 0.0 0.00 0.01 0.01 92 1006.3
20260507061747 52 139 0.0 0.0 0.00 0.01 0.01 93 1006.3
20260507061245 52 103 0.0 0.0 0.00 0.01 0.01 94 1006.3
20260507060743 52 132 0.0 0.0 0.00 0.01 0.01 94 1006.4
20260507060239 52 231 0.0 1.0 0.00 0.01 0.01 94 1006.5
20260507055735 52 177 0.0 1.0 0.00 0.01 0.01 93 1006.6
20260507055231 52 207 0.0 1.0 0.00 0.01 0.01 93 1006.7
20260507054727 52 234 0.0 2.0 0.00 0.01 0.01 94 1006.8
20260507054224 53 35 0.0 2.0 0.00 0.01 0.01 95 1006.8
20260507053722 53 273 1.0 2.0 0.00 0.01 0.01 96 1006.6
20260507053219 54 186 0.0 2.0 0.00 0.01 0.01 96 1006.8
20260507052718 54 278 0.0 0.0 0.00 0.01 0.01 96 1006.7
20260507052214 54 240 1.0 2.0 0.00 0.01 0.01 96 1006.4
20260507051712 55 227 1.0 2.0 0.00 0.01 0.01 96 1006.5
20260507051209 55 294 1.0 2.0 0.00 0.01 0.01 96 1006.7
20260507050705 55 43 2.0 2.0 0.00 0.01 0.01 96 1006.7
20260507050202 56 73 0.0 3.0 0.00 0.01 0.01 96 1006.9
20260507045659 56 344 1.0 6.0 0.00 0.01 0.01 96 1007.0
20260507045156 56 131 1.0 2.0 0.00 0.01 0.01 96 1006.7
20260507044652 56 217 0.0 0.0 0.00 0.01 0.01 96 1006.6
20260507044149 57 206 0.0 0.0 0.00 0.01 0.01 96 1006.4
20260507043645 57 209 0.0 1.0 0.00 0.01 0.01 95 1006.5
20260507043142 57 244 1.0 4.0 0.00 0.01 0.01 95 1006.6
20260507042639 57 192 2.0 2.0 0.00 0.01 0.01 95 1006.2
20260507042134 57 5 3.0 6.0 0.05 0.01 0.01 95 1006.3
20260507041631 58 215 1.0 4.0 0.00 0.00 0.00 95 1006.3
20260507041127 58 220 1.0 3.0 0.00 0.00 0.00 96 1006.4
20260507040625 58 188 0.0 1.0 0.00 0.00 0.00 96 1006.5
20260507040121 58 206 0.0 0.0 0.00 0.00 0.00 97 1006.4
20260507035617 58 183 3.0 3.0 0.00 0.23 0.23 97 1006.5
20260507035113 59 207 0.0 2.0 0.00 0.23 0.23 97 1006.4
20260507034610 59 35 0.0 0.0 0.00 0.23 0.23 97 1006.2
20260507034108 59 149 1.0 3.0 0.00 0.23 0.23 97 1006.2
20260507033606 59 181 0.0 1.0 0.00 0.23 0.23 97 1006.2
20260507033103 59 205 5.0 7.0 0.00 0.23 0.23 98 1005.9
20260507032600 59 248 1.0 2.0 0.00 0.23 0.23 97 1005.8
20260507032056 59 184 3.0 7.0 0.00 0.23 0.23 98 1005.8
20260507031552 59 181 0.0 2.0 0.00 0.23 0.23 98 1005.7
20260507031050 59 188 2.0 4.0 0.00 0.23 0.23 98 1005.6
20260507030546 59 178 1.0 9.0 0.00 0.23 0.23 98 1005.4
20260507030044 59 232 0.0 3.0 0.00 0.23 0.23 98 1005.4
20260507025541 59 141 2.0 3.0 0.00 0.23 0.23 98 1005.6
20260507025038 59 185 1.0 7.0 0.00 0.23 0.23 98 1005.4
20260507024536 59 202 1.0 2.0 0.00 0.23 0.23 98 1005.6
20260507024032 59 168 3.0 7.0 0.00 0.23 0.23 98 1005.8
20260507023528 59 175 1.0 3.0 0.00 0.23 0.23 98 1005.7
20260507023026 59 149 1.0 7.0 0.00 0.23 0.23 98 1005.7
20260507022523 59 196 2.0 4.0 0.00 0.23 0.23 98 1005.6
20260507022018 59 219 3.0 8.0 0.00 0.23 0.23 98 1005.6
20260507021514 59 188 1.0 6.0 0.00 0.23 0.23 98 1005.6
20260507021011 59 194 1.0 4.0 0.00 0.23 0.23 98 1005.6
20260507020508 59 222 1.0 6.0 0.00 0.23 0.23 98 1005.8
20260507020005 59 166 1.0 2.0 0.00 0.23 0.23 98 1006.0
20260507015503 59 271 0.0 1.0 0.00 0.23 0.23 98 1006.0
20260507015000 59 151 0.0 4.0 0.00 0.23 0.23 98 1005.9
20260507014457 59 145 2.0 4.0 0.00 0.23 0.23 98 1005.8
20260507013953 59 173 0.0 2.0 0.00 0.23 0.23 98 1006.0
20260507013449 59 20 4.0 4.0 0.00 0.23 0.23 98 1005.8
20260507012947 59 263 2.0 4.0 0.00 0.23 0.23 98 1005.8
20260507012444 59 187 0.0 4.0 0.00 0.23 0.23 98 1006.1
20260507011940 59 123 2.0 3.0 0.00 0.23 0.23 98 1005.9
20260507011437 59 209 0.0 1.0 0.00 0.23 0.23 98 1006.1
20260507010932 59 186 4.0 6.0 0.00 0.23 0.23 98 1006.0
20260507010427 59 182 1.0 4.0 0.00 0.23 0.23 98 1006.1
20260507005924 59 176 4.0 4.0 0.00 0.23 0.23 98 1006.1
20260507005422 59 159 0.0 2.0 0.00 0.23 0.23 98 1006.2
20260507004918 59 202 3.0 7.0 0.00 0.23 0.23 98 1006.0
20260507004415 59 167 4.0 6.0 0.00 0.23 0.23 98 1005.9
20260507003912 59 200 1.0 3.0 0.00 0.23 0.23 98 1006.0
20260507003407 59 197 0.0 2.0 0.00 0.23 0.23 98 1006.0
20260507002903 59 92 1.0 2.0 0.00 0.23 0.23 98 1005.8
20260507002359 59 182 1.0 6.0 0.00 0.23 0.23 98 1005.9
20260507001856 59 169 1.0 6.0 0.00 0.23 0.23 98 1005.8
20260507001353 59 208 4.0 11.0 0.00 0.23 0.23 98 1005.7
20260507000850 59 185 5.0 7.0 0.00 0.23 0.23 98 1005.6
20260507000345 59 157 1.0 8.0 0.00 0.23 0.23 98 1005.5
20260506235842 59 215 1.0 3.0 0.07 0.23 0.23 98 1005.5
20260506235338 59 132 0.0 3.0 0.07 0.23 0.23 98 1005.7
20260506234829 59 212 4.0 7.0 0.00 0.22 0.22 98 1005.8
20260506234327 59 228 2.0 6.0 0.00 0.22 0.22 97 1005.6
20260506233824 59 232 5.0 6.0 0.07 0.22 0.22 97 1005.7
20260506233320 59 234 1.0 2.0 0.19 0.22 0.22 97 1005.7
20260506232817 59 211 3.0 6.0 0.24 0.21 0.21 97 1005.6
20260506232312 59 127 1.0 4.0 0.12 0.18 0.18 97 1005.9
20260506231809 59 199 3.0 3.0 0.05 0.17 0.17 97 1005.8
20260506231307 60 148 0.0 1.0 0.00 0.16 0.16 97 1005.7
20260506230805 60 191 0.0 0.0 0.00 0.16 0.16 97 1006.0
20260506230301 60 188 1.0 6.0 0.00 0.16 0.16 97 1006.0
20260506225757 60 193 0.0 3.0 0.00 0.16 0.16 97 1006.0
20260506225254 60 216 0.0 3.0 0.00 0.16 0.16 97 1006.0
20260506224745 60 208 1.0 6.0 0.00 0.16 0.16 97 1005.9
20260506224243 60 195 2.0 10.0 0.00 0.16 0.16 96 1005.9
20260506223738 60 190 3.0 8.0 0.07 0.16 0.16 96 1005.7
20260506223234 60 200 0.0 7.0 0.12 0.16 0.16 96 1006.0
20260506222731 60 99 1.0 3.0 0.05 0.15 0.15 96 1006.0
20260506222227 60 190 1.0 8.0 0.00 0.14 0.14 95 1006.0
20260506221725 60 208 5.0 7.0 0.00 0.14 0.14 95 1006.1
20260506221223 60 185 1.0 8.0 0.00 0.14 0.14 95 1006.1
20260506220720 60 197 7.0 10.0 0.00 0.14 0.14 96 1006.0
20260506220214 60 188 7.0 9.0 0.00 0.14 0.14 96 1006.1
20260506215711 60 203 1.0 3.0 0.00 0.14 0.14 96 1006.1
20260506215207 60 235 6.0 7.0 0.00 0.14 0.14 96 1006.5
20260506214704 60 219 3.0 8.0 0.00 0.14 0.14 96 1006.2
20260506214201 60 214 4.0 4.0 0.07 0.14 0.14 96 1006.4
20260506213700 60 204 2.0 4.0 0.07 0.14 0.14 96 1006.4
20260506213156 60 68 0.0 7.0 0.00 0.13 0.13 96 1006.7
20260506212653 60 160 4.0 4.0 0.00 0.13 0.13 96 1006.6
20260506212148 60 341 2.0 2.0 0.05 0.13 0.13 96 1006.6
20260506211644 60 234 3.0 4.0 0.00 0.12 0.12 95 1006.7
20260506211141 60 223 1.0 7.0 0.07 0.12 0.12 95 1006.7
20260506210638 60 166 0.0 2.0 0.07 0.12 0.12 95 1006.9
20260506210134 60 202 4.0 9.0 0.05 0.11 0.11 94 1006.8
20260506205632 60 185 0.0 9.0 0.12 0.11 0.11 94 1006.8
20260506205126 60 156 2.0 7.0 0.14 0.10 0.10 94 1006.9
20260506204625 61 172 1.0 2.0 0.12 0.09 0.09 94 1007.1
20260506204121 61 194 1.0 6.0 0.05 0.08 0.08 94 1007.0
20260506203620 61 227 2.0 8.0 0.07 0.07 0.07 93 1006.8
20260506203116 62 146 0.0 1.0 0.12 0.07 0.07 92 1006.9
20260506202614 62 173 4.0 9.0 0.12 0.06 0.06 91 1006.9
20260506202110 62 136 0.0 3.0 0.07 0.05 0.05 91 1006.8
20260506201607 62 154 4.0 4.0 0.00 0.04 0.04 90 1006.8
20260506201104 63 203 3.0 8.0 0.05 0.04 0.04 89 1006.8
20260506200600 63 159 0.0 3.0 0.05 0.04 0.04 89 1006.6
20260506200057 64 161 0.0 3.0 0.07 0.03 0.03 88 1007.0
20260506195553 64 190 1.0 3.0 0.07 0.03 0.03 87 1006.8
20260506195050 64 138 0.0 4.0 0.00 0.02 0.02 86 1006.6
20260506194548 64 185 1.0 9.0 0.00 0.02 0.02 85 1006.9
20260506194043 64 170 1.0 3.0 0.05 0.02 0.02 86 1006.7
20260506193542 64 53 0.0 1.0 0.05 0.02 0.02 84 1006.8
20260506193038 65 223 1.0 6.0 0.07 0.01 0.01 82 1007.0
20260506192535 66 169 3.0 8.0 0.07 0.01 0.01 79 1007.0
20260506192031 66 301 1.0 6.0 0.00 0.00 0.00 77 1006.9
20260506191528 67 340 3.0 7.0 0.00 0.00 0.00 75 1006.8
20260506191024 68 257 1.0 2.0 0.00 0.00 0.00 73 1007.1
20260506190521 68 348 2.0 2.0 0.00 0.00 0.00 71 1007.0
20260506190019 68 207 6.0 11.0 0.00 0.00 0.00 69 1006.8
20260506185515 69 221 2.0 4.0 0.00 0.00 0.00 67 1006.9
20260506185012 69 154 4.0 11.0 0.00 0.00 0.00 66 1007.0
20260506184509 70 346 4.0 6.0 0.00 0.00 0.00 64 1006.7
20260506184006 71 301 7.0 8.0 0.00 0.00 0.00 62 1006.9
20260506183503 71 190 3.0 10.0 0.00 0.00 0.00 60 1007.2
20260506183000 71 192 11.0 18.0 0.00 0.00 0.00 58 1006.7
20260506182456 71 95 4.0 7.0 0.00 0.00 0.00 60 1007.1
20260506181953 71 198 2.0 8.0 0.00 0.00 0.00 61 1007.0
20260506181451 71 214 10.0 14.0 0.00 0.00 0.00 61 1006.8
20260506180948 71 310 1.0 2.0 0.00 0.00 0.00 61 1007.1
20260506180444 71 187 2.0 17.0 0.00 0.00 0.00 61 1007.1
20260506175941 72 240 5.0 8.0 0.00 0.00 0.00 59 1007.0
20260506175438 72 116 4.0 11.0 0.00 0.00 0.00 59 1007.2
20260506174934 72 175 2.0 7.0 0.00 0.00 0.00 59 1007.2
20260506174432 72 190 4.0 10.0 0.00 0.00 0.00 59 1007.2
20260506173923 73 199 2.0 8.0 0.00 0.00 0.00 59 1007.1
20260506173420 73 145 3.0 10.0 0.00 0.00 0.00 59 1007.4
20260506172918 73 162 3.0 16.0 0.00 0.00 0.00 58 1007.4
20260506172414 74 246 1.0 2.0 0.00 0.00 0.00 58 1007.4
20260506171911 73 201 6.0 13.0 0.00 0.00 0.00 60 1007.3
20260506171408 72 217 1.0 2.0 0.00 0.00 0.00 59 1007.4
20260506170906 72 235 3.0 7.0 0.00 0.00 0.00 60 1007.6
20260506170401 72 169 4.0 6.0 0.00 0.00 0.00 60 1007.5
20260506165855 71 42 3.0 4.0 0.00 0.00 0.00 60 1007.6
20260506165353 71 97 1.0 4.0 0.00 0.00 0.00 61 1007.7
20260506164849 71 235 5.0 7.0 0.00 0.00 0.00 61 1007.5
20260506164346 72 212 1.0 6.0 0.00 0.00 0.00 59 1007.8
20260506163844 72 149 1.0 7.0 0.00 0.00 0.00 59 1007.9
20260506163338 72 20 3.0 4.0 0.00 0.00 0.00 59 1007.8
20260506162833 72 212 4.0 15.0 0.00 0.00 0.00 59 1007.7
20260506162331 72 212 3.0 13.0 0.00 0.00 0.00 58 1007.8
20260506161828 72 115 1.0 6.0 0.00 0.00 0.00 59 1008.1
20260506161325 72 210 10.0 10.0 0.00 0.00 0.00 59 1008.3
20260506160818 72 215 2.0 10.0 0.00 0.00 0.00 60 1008.2
20260506160314 72 188 6.0 9.0 0.00 0.00 0.00 60 1008.3
20260506155813 72 207 1.0 9.0 0.00 0.00 0.00 60 1008.4
20260506155309 71 194 0.0 7.0 0.00 0.00 0.00 61 1008.6
20260506153422 71 208 0.0 3.0 0.00 0.00 0.00 63 1009.1
20260506152919 71 164 9.0 11.0 0.00 0.00 0.00 63 1009.1
20260506152416 71 218 4.0 4.0 0.00 0.00 0.00 63 1009.2
20260506151915 71 213 4.0 6.0 0.00 0.00 0.00 64 1009.2
20260506151411 71 211 4.0 9.0 0.00 0.00 0.00 63 1009.1
20260506150909 71 138 4.0 13.0 0.00 0.00 0.00 64 1009.1
20260506150405 70 126 3.0 4.0 0.00 0.00 0.00 64 1009.1
20260506145902 70 187 6.0 11.0 0.00 0.00 0.00 66 1009.3
20260506145358 70 202 3.0 6.0 0.00 0.00 0.00 66 1009.4
20260506144856 70 194 2.0 10.0 0.00 0.00 0.00 66 1009.4
20260506144352 69 174 3.0 9.0 0.00 0.00 0.00 66 1009.4
20260506143850 70 201 4.0 8.0 0.00 0.00 0.00 65 1009.3
20260506143347 70 170 6.0 11.0 0.00 0.00 0.00 65 1009.4
20260506142845 69 287 2.0 9.0 0.00 0.00 0.00 67 1009.1
20260506142343 69 166 7.0 11.0 0.00 0.00 0.00 68 1009.2
20260506141841 68 225 4.0 11.0 0.00 0.00 0.00 69 1008.8
20260506141339 69 338 2.0 11.0 0.00 0.00 0.00 68 1009.2
20260506140837 68 240 4.0 8.0 0.00 0.00 0.00 69 1009.2
20260506140333 68 134 6.0 9.0 0.00 0.00 0.00 70 1009.3
20260506135830 67 198 7.0 9.0 0.00 0.00 0.00 70 1009.3
20260506135327 67 208 4.0 9.0 0.00 0.00 0.00 71 1009.2
20260506134823 67 217 8.0 9.0 0.00 0.00 0.00 71 1009.4
20260506134320 67 194 3.0 11.0 0.00 0.00 0.00 72 1009.8
20260506133817 67 183 2.0 3.0 0.00 0.00 0.00 71 1009.7
20260506133314 67 151 1.0 3.0 0.00 0.00 0.00 72 1009.8
20260506132810 66 180 2.0 2.0 0.00 0.00 0.00 72 1009.7
20260506132308 67 191 8.0 11.0 0.00 0.00 0.00 72 1009.7
20260506131806 67 190 7.0 9.0 0.00 0.00 0.00 72 1009.8
20260506131301 66 219 1.0 8.0 0.00 0.00 0.00 74 1009.8
20260506130759 66 228 6.0 11.0 0.00 0.00 0.00 74 1009.7
20260506130255 66 181 4.0 7.0 0.00 0.00 0.00 74 1009.7
20260506125753 66 178 3.0 7.0 0.00 0.00 0.00 74 1009.7
20260506125251 67 193 0.0 4.0 0.00 0.00 0.00 73 1009.7
20260506124749 66 192 6.0 14.0 0.00 0.00 0.00 74 1009.6
20260506124246 65 203 8.0 11.0 0.00 0.00 0.00 75 1009.7
20260506123744 64 205 9.0 11.0 0.00 0.00 0.00 77 1009.7
20260506123242 64 174 1.0 4.0 0.00 0.00 0.00 77 1009.8
20260506122739 64 245 3.0 10.0 0.00 0.00 0.00 77 1010.1
20260506122236 64 206 2.0 4.0 0.00 0.00 0.00 76 1010.1
20260506121734 64 189 11.0 13.0 0.00 0.00 0.00 76 1009.9
20260506121230 63 120 2.0 6.0 0.00 0.00 0.00 77 1009.7
20260506120728 63 296 4.0 6.0 0.00 0.00 0.00 78 1009.8
20260506120225 63 174 5.0 6.0 0.00 0.00 0.00 78 1010.2
20260506115723 63 207 3.0 4.0 0.00 0.00 0.00 78 1010.0
20260506115221 63 181 6.0 9.0 0.00 0.00 0.00 78 1010.0
20260506114718 63 211 2.0 6.0 0.00 0.00 0.00 78 1010.1
20260506114216 63 178 4.0 4.0 0.00 0.00 0.00 78 1010.0
20260506113714 62 147 1.0 4.0 0.00 0.00 0.00 79 1010.4
20260506113211 62 189 4.0 6.0 0.00 0.00 0.00 79 1010.3
20260506112707 62 156 4.0 4.0 0.00 0.00 0.00 79 1010.1
20260506112206 62 215 3.0 6.0 0.00 0.00 0.00 79 1010.0
20260506111703 62 118 3.0 6.0 0.00 0.00 0.00 79 1010.2
20260506111201 62 124 2.0 6.0 0.00 0.00 0.00 80 1009.9
20260506110657 61 173 4.0 4.0 0.00 0.00 0.00 80 1010.3
20260506110155 61 136 2.0 7.0 0.00 0.00 0.00 81 1010.1
20260506105651 61 106 1.0 3.0 0.00 0.00 0.00 81 1010.3